Probability
4 13 24 34 32 16 3 0 0 0 0 0 0 0 0 0 0 0 2 4 4 2 1 0 1 2 1 0 0 0 0 0 0 0 0 0 0 0 0 0 0 0 0 0 0 0 0 0 0
3 9 19 27 23 9 1 0 0 0 0 0 0 0 0 0 0 1 4 7 5 2 1 1 2 2 1 0 0 0 0 0 0 0 0 0 0 0 0 0 0 0 0 0 0 0 0 0 0
2 5 12 16 10 3 0 0 0 0 0 0 0 0 0 0 1 4 9 10 6 2 1 3 4 3 1 0 0 0 0 0 0 0 0 0 0 0 0 0 0 0 0 0 0 0 0 0 0
1 4 7 7 3 0 0 0 0 0 0 0 0 0 0 1 4 8 13 13 9 5 4 5 6 5 1 0 0 0 0 0 0 0 0 0 0 0 0 0 0 0 0 0 0 0 0 0 0
1 2 3 2 0 0 0 0 0 0 0 0 1 2 3 5 9 11 12 15 14 12 8 6 7 5 1 0 0 0 0 0 0 0 0 0 0 0 0 0 0 0 0 0 0 0 0 0 0
0 0 0 0 0 0 0 0 0 0 0 0 2 6 9 11 12 11 11 16 20 19 13 8 6 4 1 0 0 0 0 0 0 0 0 0 0 0 0 0 0 0 0 0 0 0 0 0 0
0 0 0 0 0 0 0 0 0 0 0 0 2 9 17 20 17 14 14 20 26 24 17 11 8 6 3 0 0 0 0 0 0 0 0 0 0 0 0 0 0 0 0 0 0 0 0 0 0
0 0 0 0 0 0 0 0 0 0 0 0 2 12 26 31 24 20 22 27 32 29 21 15 11 8 4 1 0 0 0 0 0 0 0 0 0 0 0 0 0 0 0 0 0 0 0 0 0
0 0 0 0 0 0 0 0 0 1 1 2 7 20 34 34 29 28 31 35 39 37 26 18 14 10 4 0 0 0 0 0 0 0 0 0 0 0 0 0 0 0 0 0 0 0 0 0 0
0 0 0 0 0 0 0 0 0 1 1 5 17 31 35 31 32 37 40 44 48 45 35 25 19 13 6 3 2 1 0 1 1 0 0 0 0 0 0 0 0 0 0 0 0 0 0 0 0
0 0 0 0 0 0 0 0 0 1 1 8 25 37 36 34 38 44 47 52 54 52 43 33 27 20 13 10 7 3 1 2 2 1 0 1 1 1 0 0 1 1 0 0 0 0 0 0 0
0 0 0 0 0 0 0 0 0 1 2 11 27 39 42 41 43 47 53 57 60 58 49 41 37 33 28 21 13 7 4 4 4 4 2 2 2 1 0 1 2 1 0 0 0 0 0 0 0
0 0 0 0 0 0 0 0 1 3 6 11 25 40 46 46 47 52 59 63 65 64 58 50 48 48 45 34 21 13 10 9 8 8 6 4 3 1 0 1 1 1 0 0 0 0 0 0 0
0 0 0 0 0 0 0 0 2 5 7 11 23 39 46 47 50 58 65 68 69 69 64 56 54 55 52 42 29 20 16 14 12 11 9 6 4 3 1 1 1 0 0 0 0 0 0 0 0
0 0 0 0 0 0 0 1 3 5 6 12 24 38 46 49 53 61 68 70 71 69 63 55 52 52 49 41 32 24 19 15 15 14 12 8 7 6 3 1 1 1 1 1 0 0 0 0 0
0 0 0 0 0 0 0 1 3 4 7 16 28 39 48 52 55 61 66 69 70 67 59 51 46 45 41 36 32 26 20 18 17 16 14 11 10 8 4 1 1 1 1 0 0 0 0 0 0
0 0 0 0 0 0 0 1 3 3 8 21 34 44 53 55 56 61 65 68 68 63 55 47 43 39 34 31 31 27 23 21 18 15 14 13 12 11 7 3 2 2 1 1 1 1 1 1 0
0 0 0 0 0 0 0 1 2 3 8 22 39 51 59 60 60 63 65 65 64 58 51 46 41 37 31 29 30 28 24 21 17 12 12 13 11 11 9 6 5 4 3 3 2 2 2 2 1
0 0 0 0 0 0 0 0 1 3 7 22 42 55 62 65 65 64 62 61 58 54 49 45 39 33 28 27 30 28 21 16 13 12 13 12 9 7 8 8 7 5 4 4 4 4 4 3 3
0 0 0 0 0 0 0 0 2 5 8 20 39 52 61 66 66 63 59 55 52 47 44 40 34 30 27 27 27 25 18 13 12 15 15 12 8 5 6 9 7 6 6 6 7 8 7 5 4
0 0 0 0 0 0 0 1 4 8 10 16 31 46 56 62 64 60 55 51 45 39 37 36 33 30 29 27 24 21 17 13 13 16 15 13 9 5 6 9 8 7 7 10 12 13 10 7 6
0 0 0 0 0 0 0 1 4 8 11 14 25 39 51 58 59 55 50 45 39 33 32 35 36 33 29 25 21 19 16 13 14 15 13 13 11 7 7 9 9 9 10 11 13 13 12 9 7
0 0 0 0 0 0 0 1 3 6 9 13 23 36 47 54 54 49 44 40 35 32 32 36 38 36 29 23 20 16 13 11 12 12 11 10 11 8 7 10 12 12 14 13 13 13 12 8 5
0 0 0 0 0 0 0 1 2 4 6 12 23 35 43 47 48 42 38 36 34 33 33 36 38 36 30 23 17 12 9 8 9 9 8 8 9 8 8 10 15 17 17 16 16 15 12 7 5
0 0 0 0 0 0 0 2 4 5 6 11 22 30 35 40 39 34 32 33 34 33 33 34 36 33 27 19 13 9 7 7 7 7 7 7 7 7 8 11 16 17 16 16 17 16 11 7 6
0 0 0 0 0 0 0 3 7 7 6 10 18 22 25 29 29 25 26 28 29 29 29 31 34 29 20 13 9 8 8 7 7 6 6 6 6 7 10 14 16 15 12 12 15 14 10 7 6
0 0 0 0 0 0 0 3 7 7 6 8 13 15 16 19 20 20 21 22 22 24 27 30 32 27 17 10 8 7 7 7 7 6 5 5 6 8 11 16 17 15 12 12 14 12 10 9 6
0 0 0 0 0 0 0 2 6 7 6 7 9 12 15 16 17 20 21 18 18 21 26 29 29 24 18 13 9 7 6 6 6 5 6 8 9 12 14 15 15 16 15 15 14 11 9 10 9
0 0 0 0 0 0 0 1 4 6 7 9 11 14 17 16 19 24 23 19 17 21 25 26 25 21 18 16 14 13 12 9 7 7 9 11 14 17 18 15 14 15 15 15 12 9 8 9 9
0 0 0 0 0 0 0 1 3 5 8 11 14 17 18 17 21 28 26 20 19 22 23 24 23 20 19 18 18 20 18 14 11 9 10 14 17 20 20 17 16 15 15 14 11 7 7 8 7
Wind_Speed
10 13 11 7 4 2 5 12 13 13 13 11 11 12 17 15 11 10 13 19 22 20 17 16 15 15 15 15 15 14 14 14 13 13 12 12 11 11 12 12 12 12 13 13 13 14 14 14 13
11 14 9 4 3 2 7 11 12 12 10 8 11 13 16 15 13 13 15 19 21 20 17 16 16 16 15 15 15 14 14 14 13 12 12 11 11 11 11 12 12 12 13 13 14 14 14 14 12
13 16 7 3 2 4 8 10 10 10 8 8 11 13 12 11 11 11 16 19 20 18 17 17 17 16 16 15 15 14 14 14 13 12 11 11 11 11 11 11 12 12 13 13 14 14 13 13 11
10 7 4 4 0 5 9 9 8 8 8 8 9 10 10 8 9 14 17 19 19 18 18 17 17 17 16 15 15 14 14 13 13 12 11 11 10 10 11 11 12 12 13 13 13 13 13 12 10
9 4 5 4 1 5 8 8 7 7 7 8 11 13 10 9 14 17 16 18 18 18 17 17 17 17 16 15 15 14 14 13 12 12 11 11 11 10 11 11 12 12 12 13 13 12 12 11 9
6 4 5 3 2 5 7 6 6 7 7 6 10 12 9 9 13 14 15 15 17 18 18 16 17 17 16 15 14 14 13 13 12 12 11 11 11 11 11 11 12 12 12 12 12 12 11 10 7
8 5 6 5 1 4 5 6 7 7 5 5 7 11 10 10 11 13 13 14 17 18 17 15 15 14 15 15 14 13 13 12 12 11 11 11 11 11 11 11 11 12 12 12 11 11 10 9 6
9 6 8 6 1 4 5 6 6 6 5 5 6 8 11 12 13 13 12 12 15 16 16 15 15 13 12 12 13 13 13 12 12 11 12 12 11 11 12 11 10 11 11 11 11 10 10 8 5
11 7 6 5 2 4 5 4 4 5 6 8 10 10 17 17 15 14 12 11 13 14 13 14 15 13 13 12 13 12 12 11 11 10 11 11 8 9 8 11 11 11 11 10 10 10 9 8 5
8 6 7 5 5 5 5 5 3 3 8 6 7 13 18 17 16 15 14 13 13 13 13 10 14 13 13 11 10 8 8 8 7 6 8 5 4 5 8 11 11 11 10 10 9 9 9 6 4
9 9 8 6 5 5 5 3 4 3 5 7 10 14 15 15 13 13 13 12 12 12 11 10 11 11 10 8 8 6 5 6 5 6 6 4 5 5 7 5 6 6 8 6 7 7 5 4 2
11 11 9 6 5 5 6 6 4 4 6 8 13 14 15 14 12 11 11 11 11 11 10 10 9 8 7 8 7 6 5 5 5 5 5 4 2 4 5 4 5 5 4 4 5 3 3 3 3
11 12 11 9 8 6 7 7 5 2 6 8 13 14 13 13 11 10 9 9 10 10 9 9 8 7 6 5 5 6 5 5 5 4 3 4 3 3 4 3 2 4 4 4 3 2 4 3 2
11 11 11 11 10 8 6 7 8 1 6 7 10 12 11 11 12 10 10 9 10 9 9 8 8 8 6 4 3 3 5 4 5 5 5 4 3 4 3 3 2 2 2 3 2 3 3 2 2
12 13 13 12 11 9 6 6 5 2 4 7 9 10 10 10 10 10 10 9 10 10 9 9 9 8 7 5 4 4 4 6 5 4 5 4 4 5 4 3 3 2 3 3 2 3 2 3 3
13 13 14 13 11 8 8 6 3 6 7 6 8 9 9 8 9 10 10 9 9 10 9 9 10 10 7 5 4 3 4 5 4 4 5 4 4 5 3 3 3 3 3 2 2 2 2 2 2
13 14 14 10 8 7 7 5 6 8 7 7 7 8 9 9 8 9 10 10 10 10 10 9 8 10 8 7 4 3 3 4 3 4 4 4 5 5 3 2 3 3 2 2 3 2 1 2 2
11 11 9 7 5 6 7 6 5 6 6 8 8 9 9 9 8 9 10 10 10 10 11 10 9 9 8 5 4 2 3 3 4 4 4 5 4 5 3 3 3 3 2 2 1 3 2 1 1
15 13 11 7 4 6 8 8 5 4 5 6 8 9 10 10 10 10 10 11 11 11 11 10 9 9 7 5 5 4 4 3 3 4 6 5 4 5 3 3 4 2 2 3 3 2 3 2 1
13 13 13 9 7 6 9 9 6 4 5 6 8 9 10 11 11 11 10 10 12 11 11 10 9 9 8 6 4 3 4 3 3 3 5 6 5 5 5 4 3 3 2 2 1 1 1 2 3
13 13 13 11 9 8 11 12 7 3 4 5 8 9 10 12 12 12 11 10 10 11 11 10 9 9 9 8 5 4 2 2 3 4 4 5 6 5 3 5 3 3 3 3 3 3 3 1 1
12 13 13 12 11 10 11 9 5 6 5 6 7 9 10 11 12 12 11 11 11 11 10 10 9 9 8 8 7 7 5 5 4 4 4 5 5 5 5 4 4 2 2 4 4 4 2 2 1
13 12 10 11 11 12 13 10 2 6 5 7 7 9 11 11 12 12 12 12 11 11 10 10 9 9 9 8 8 7 6 4 4 4 5 5 5 5 5 5 4 3 2 4 3 3 2 1 2
12 11 10 11 11 13 13 11 3 4 6 7 9 11 10 11 11 11 11 11 9 10 10 10 10 9 8 8 8 7 7 6 5 5 6 5 4 4 5 5 4 4 3 3 3 2 3 2 1
13 10 8 9 8 9 8 8 3 5 6 8 10 12 11 11 11 11 11 11 9 9 10 10 10 9 9 9 8 7 7 6 6 6 6 5 5 4 5 6 5 4 3 3 3 3 2 3 2
14 15 11 8 5 5 7 7 5 8 8 9 10 12 12 12 11 11 11 10 9 9 9 10 10 9 9 8 7 6 7 5 5 6 5 5 4 5 6 6 5 5 4 5 4 3 4 3 2
15 15 16 14 12 9 6 4 7 7 9 9 11 12 11 11 11 11 11 10 9 9 9 10 9 8 8 8 7 6 6 5 5 5 5 4 3 4 6 6 6 5 5 4 4 3 3 3 3
16 13 9 11 9 11 6 4 4 7 7 10 11 11 11 11 11 11 11 11 9 8 8 9 9 7 7 6 6 6 6 6 5 4 5 4 4 3 5 6 6 6 5 5 4 4 3 4 3
15 15 12 9 10 9 5 1 4 6 7 10 11 12 11 11 11 10 10 10 10 9 9 8 8 7 6 6 5 5 6 6 5 4 4 4 3 3 4 4 5 5 5 5 5 4 4 4 3
15 15 14 10 9 10 6 2 4 6 8 9 11 11 11 10 11 11 10 10 9 9 9 8 8 7 7 6 5 5 5 5 5 5 4 4 4 3 4 4 4 4 5 4 4 4 3 3 3
Wind_Direction
248 248 238 253 262 269 62 70 66 66 65 59 52 59 64 56 59 87 116 118 119 122 128 128 125 124 125 126 126 124 122 120 118 115 111 107 105 103 102 100 99 99 101 102 102 103 102 101 101
271 265 250 252 266 80 73 73 69 68 70 71 63 63 71 70 77 102 115 119 123 127 133 130 128 126 126 126 127 126 124 123 122 119 115 112 109 107 106 103 103 102 104 105 105 105 104 104 105
267 267 269 236 237 82 79 76 77 83 78 68 73 65 64 78 90 110 122 127 125 127 127 127 132 130 129 128 128 127 126 126 125 122 118 116 114 112 108 106 105 106 107 107 107 106 106 107 108
265 265 268 261 189 84 83 82 84 79 75 71 76 78 68 63 102 119 130 131 126 128 127 132 134 132 131 130 130 130 130 129 127 125 123 120 118 115 110 108 108 108 109 109 110 109 109 110 112
254 265 265 273 77 83 82 76 78 82 71 78 83 90 88 81 106 124 136 130 132 130 129 134 136 135 134 134 133 133 132 130 128 127 125 123 120 115 114 112 112 112 112 113 113 113 113 114 116
261 258 280 297 87 87 85 83 73 74 72 69 96 102 98 110 119 134 137 133 131 128 130 134 137 138 137 137 136 134 133 133 132 130 128 125 122 119 117 116 115 116 116 116 116 117 118 118 120
261 276 275 283 334 77 76 77 66 68 68 71 90 105 116 128 132 140 137 135 131 131 134 141 143 142 141 140 139 139 137 136 135 133 132 130 128 126 123 121 121 121 121 122 123 123 123 125 131
271 278 287 267 156 88 70 73 71 71 70 72 82 111 134 143 146 142 138 136 130 133 138 148 149 145 146 143 143 142 141 141 140 140 139 138 135 133 132 128 126 126 127 129 129 129 130 135 146
271 275 287 301 14 67 49 45 76 88 70 45 56 90 131 146 149 144 143 139 134 135 142 155 149 151 152 147 143 144 143 144 145 148 148 151 152 144 147 127 132 133 134 136 138 141 144 151 168
244 265 279 307 360 19 31 360 352 81 87 73 74 103 127 145 152 152 154 151 147 145 151 155 151 156 157 148 144 152 156 153 165 155 161 175 149 135 126 133 138 141 142 145 152 157 164 178 181
248 257 278 308 352 346 334 324 333 51 98 130 141 136 141 148 153 156 158 157 156 154 150 150 153 156 152 139 152 159 155 155 171 160 168 164 142 137 133 142 145 151 159 165 160 178 194 194 176
256 273 284 299 318 309 306 312 335 17 78 115 135 143 147 154 159 162 159 157 152 151 150 148 151 148 144 146 152 152 151 161 159 160 175 157 154 144 143 149 160 167 176 170 178 190 176 154 159
251 267 278 286 289 287 300 307 305 30 90 104 128 141 151 159 163 161 155 151 148 150 151 148 150 135 129 132 155 158 150 159 152 154 179 158 154 138 137 130 155 182 162 170 184 164 134 143 159
276 276 275 275 278 278 281 296 303 326 121 130 136 144 155 161 162 161 159 159 153 153 151 143 142 136 133 141 166 142 149 153 154 161 163 170 141 126 136 141 169 172 144 146 150 134 130 150 133
272 279 277 268 262 256 265 269 259 211 175 159 147 149 156 160 160 162 164 164 159 154 153 149 149 149 147 159 179 158 157 160 162 153 145 157 142 138 147 147 178 147 121 120 135 142 149 162 158
264 259 259 254 245 245 250 257 199 188 198 165 152 153 155 154 159 156 158 158 154 153 156 164 164 154 155 169 191 165 169 151 148 143 141 155 146 149 153 157 159 140 138 160 157 161 158 166 147
251 248 252 246 223 245 255 263 187 195 182 162 159 154 152 153 164 153 154 154 154 154 155 166 155 154 166 173 179 181 152 145 146 139 147 160 158 152 160 141 128 164 155 169 187 152 163 160 155
256 260 258 254 225 246 269 271 223 206 188 166 162 158 155 160 165 153 148 149 150 152 156 164 163 158 165 170 168 176 158 159 153 152 155 163 164 161 168 150 154 187 170 159 115 124 110 113 195
280 296 298 288 279 277 279 276 247 240 217 168 158 159 158 159 154 146 149 152 153 155 158 164 167 164 165 168 168 169 169 176 167 163 158 161 173 168 171 152 155 191 154 154 155 154 163 188 189
266 276 282 282 274 273 280 278 260 236 248 175 166 163 164 156 150 149 152 155 159 161 163 164 170 169 172 171 166 168 169 178 171 159 152 165 178 180 174 164 171 174 142 149 162 152 180 207 190
257 262 271 280 284 269 270 266 246 190 230 196 172 160 158 152 154 155 156 156 160 166 170 173 174 172 177 169 164 161 151 168 163 157 161 181 184 186 183 167 184 174 173 169 187 183 200 227 207
255 255 264 276 279 277 273 272 219 185 191 201 174 153 148 149 152 154 159 164 169 172 172 172 173 174 173 170 170 169 174 180 178 167 167 185 190 185 186 176 178 174 182 165 193 188 195 199 228
255 268 268 272 272 274 270 271 217 156 175 197 167 145 143 149 149 155 161 165 170 170 168 168 168 171 173 177 175 179 183 183 181 169 167 182 187 194 189 176 175 189 203 171 175 146 192 212 227
252 262 264 263 265 260 260 267 229 177 175 172 149 136 138 142 145 151 155 157 165 167 165 167 168 171 175 180 184 186 187 181 179 178 174 184 182 194 195 181 180 188 199 169 159 156 193 231 266
231 239 244 235 236 259 266 249 189 146 138 136 132 132 137 142 148 151 154 157 162 165 167 166 166 169 174 181 187 188 188 184 184 184 189 190 184 187 191 182 177 189 188 172 171 175 212 209 224
220 228 240 255 254 262 260 238 147 133 122 128 132 134 141 147 148 150 152 154 161 165 165 164 165 167 174 179 183 185 183 189 188 193 194 196 193 186 171 170 179 188 189 192 178 185 200 197 203
232 227 246 262 269 263 222 188 130 130 138 141 140 141 146 146 147 151 152 153 161 164 165 165 161 166 175 178 178 184 189 192 186 186 192 195 197 182 168 174 182 187 187 189 173 201 205 170 190
244 237 239 253 271 276 246 205 174 156 159 149 145 146 145 146 148 150 149 152 157 159 156 153 155 164 171 172 179 185 187 183 184 192 197 191 192 186 168 181 186 186 184 187 190 206 194 174 192
218 236 246 255 257 268 272 326 123 171 167 154 147 143 144 148 148 147 145 148 152 151 151 152 154 160 167 174 178 174 175 179 185 195 197 181 177 168 169 184 190 187 188 189 192 209 193 184 190
223 225 229 242 253 269 268 200 152 164 161 152 138 138 140 148 146 141 138 142 148 150 151 155 161 166 169 170 167 167 170 172 179 188 186 177 177 177 176 182 190 196 188 184 188 198 189 168 169